Regional Weather Roundup
Issued by NWS

Home | Current Version | Previous Version | Graphics & Text | Print | Product List | Glossary On
Versions: 1 2 3 4 5 6 7 8 9 10 11 12 13 14 15 16 17 18 19 20 21 22 23 24 25 26 27 28 29 30 31 32 33 34 35 36 37 38 39 40 41 42 43 44 45 46 47 48 49 50
000
ASUS45 KBOU 171507
RWRCO

WEATHER ROUNDUP FOR COLORADO
NATIONAL WEATHER SERVICE DENVER/BOULDER CO
900 AM MDT WED SEP 17 2014

NOTE: "FAIR" INDICATES FEW OR NO CLOUDS BELOW 12000 FEET WITH NO
SIGNIFICANT WEATHER AND/OR OBSTRUCTIONS TO VISIBILITY.

COZ001>005-013-030-031-171600-
...NORTHWEST COLORADO...

CITY           SKY/WX    TMP DP  RH WIND       PRES   REMARKS
CRAIG          SUNNY     53  40  61 CALM      30.21S
HAYDEN         SUNNY     55  36  47 E12       30.23R
MEEKER         MOSUNNY   58  40  51 CALM      30.22S
MOUNT WERNER   NOT AVBL
STEAMBOAT SPGS SUNNY     49  37  63 CALM      30.26S
WALDEN         SUNNY     50  34  53 CALM      30.33S
$$

COZ006>008-011-171600-
...WEST CENTRAL VALLEYS...

CITY           SKY/WX    TMP DP  RH WIND       PRES   REMARKS
GRAND JUNCTION MOSUNNY   66  43  43 SE9       30.12R
MONTROSE       PTSUNNY   61  44  53 CALM      30.20S
EAGLE          MOSUNNY   48  39  71 CALM      30.32S
RIFLE          SUNNY     57  44  62 CALM      30.19S
DELTA          PTSUNNY   63  42  46 E5        30.17S HAZE
NUCLA          PTSUNNY   61  41  48 E3        30.23S
$$

COZ017>023-064>068-171600-
...SOUTHWEST COLORADO...

CITY           SKY/WX    TMP DP  RH WIND       PRES   REMARKS
DURANGO        PTSUNNY   58  47  66 CALM      30.24S
CORTEZ         SUNNY     61  50  67 CALM      30.20S
PAGOSA SPRINGS PTSUNNY   57  44  62 CALM      30.30S
TELLURIDE      NOT AVBL
WOLF CREEK PAS CLOUDY    45  34  65 NE10      30.57S
$$

COZ009-010-012-014-032>034-037-058>063-171600-
...CENTRAL COLORADO...

CITY           SKY/WX    TMP DP  RH WIND       PRES   REMARKS
ASPEN          MOSUNNY   54  38  54 CALM      30.31
BUENA VISTA    MOSUNNY   57  35  43 CALM      30.34S
COPPER MTN     MOSUNNY   54  30  40 W6        30.60R
BERTHOUD PASS  FAIR      43  41  93 NW10      30.63S
COTTONWOOD PAS MOSUNNY   59  32  36 CALM      30.45S
GUNNISON       PTSUNNY   46  37  71 CALM      30.38S
KREMMLING      MOSUNNY   41  34  75 CALM      30.36S
LEADVILLE      MOSUNNY   51  33  50 CALM      30.45S
MONARCH PASS   MOSUNNY   46  32  57 SW3       30.69R
SALIDA         MOSUNNY   58  36  43 NW5       30.39S
SUNLIGHT       SUNNY     55  32  41 CALM      30.52S
WILKERSON PASS NOT AVBL
$$

COZ069>075-171600-
...SAN LUIS VALLEY/SANGRE DE CRISTO MOUNTAINS...

CITY           SKY/WX    TMP DP  RH WIND       PRES   REMARKS
ALAMOSA        PTSUNNY   54  45  71 N6        30.30S
LA VETA PASS   NOT AVBL
SAGUACHE       PTSUNNY   55  36  47 NW14G21   30.33S
$$

COZ035-036-038>040-171600-
...NORTHERN COLORADO FRONT RANGE...

CITY           SKY/WX    TMP DP  RH WIND       PRES   REMARKS
DENVER INTL AP PTSUNNY   69  43  38 SW9       30.11R
DMNS CITY PARK   N/A     69  43  38 S3        30.11R
AURORA         PTSUNNY   68  42  38 SW8       30.13R
FRONT RANGE AP PTSUNNY   72  45  37 SW9       30.12
ERIE MUNI ARPT MOSUNNY   68  47  47 CALM      30.09S
BOULDER MUN AP MOSUNNY   64  45  48 CALM      30.10R
CENTENNIAL     PTSUNNY   71  40  32 SW9       30.14S
BROOMFIELD     PTSUNNY   68  41  37 VRB5      30.13R
FORT COLLINS   MOSUNNY   64  45  48 CALM      30.10S
LONGMONT       MOSUNNY   66  50  54 CALM      30.10S
$$

COZ041-046-047-076>085-087-088-171600-
...PIKES PEAK/PALMER DIVIDE AND SOUTHERN FOOTHILLS...

CITY           SKY/WX    TMP DP  RH WIND       PRES   REMARKS
COLO. SPRINGS  PTSUNNY   75  40  28 N3        30.17S
A. F. ACADEMY  SUNNY     69  45  42 N5        30.19S
ELLICOTT       NOT AVBL
FALCON         MOSUNNY   75  35  23 CALM      30.22S
FORT CARSON    MOSUNNY   69  42  37 NW3       30.14R
LIMON          SUNNY     72  40  31 W6        30.11R
MONUMENT HILL  SUNNY     70  36  28 SW6       30.22S
TRINIDAD       CLOUDY    65  45  48 W13       30.14S
$$

COZ042>045-048>051-090-091-171600-
...NORTHEAST COLORADO...

CITY           SKY/WX    TMP DP  RH WIND       PRES   REMARKS
GREELEY ARPT   MOSUNNY   57  45  62 CALM      30.08R
AKRON          SUNNY     68  45  43 W18       30.03S
BURLINGTON     SUNNY     73  52  47 W3        30.02F
WRAY           SUNNY     68  52  56 CALM      30.00R
STERLING       SUNNY     61  52  72 S7        30.01S
HOLYOKE        SUNNY     63  52  67 CALM      29.99S
FORT MORGAN    SUNNY     54  45  69 W8        30.05S
$$

COZ086-089-092>099-171600-
...SOUTHEAST COLORADO...

CITY           SKY/WX    TMP DP  RH WIND       PRES   REMARKS
PUEBLO         MOSUNNY   69  40  34 W8        30.07S
LA JUNTA       MOSUNNY   66  45  46 W9        30.04S
LAMAR          MOSUNNY   67  48  50 W9        30.00S
SPRINGFIELD      N/A     71  58  63 CALM      30.04S
$$



USA.gov is the U.S. government's official web portal to all federal, state and local government web resources and services.